Time,TemperatureF,DewpointF,PressureIn,WindDirection,WindDirectionDegrees,WindSpeedMPH,WindSpeedGustMPH,Humidity,HourlyPrecipIn,Conditions,Clouds,dailyrainin,SoftwareType,DateUTC
2013-08-25 00:00:00,74.1,71.0,30.12,ENE,64,0.0,0.0,90,0.00,FEW,,0.39,WeatherDisplay:10.37,2013-08-25 04:00:00,
2013-08-25 00:01:00,74.1,71.0,30.12,ENE,64,0.0,0.0,90,0.00,RA,,0.00,WeatherDisplay:10.37,2013-08-25 04:01:00,
2013-08-25 00:02:00,74.1,71.0,30.13,ENE,64,0.0,0.0,90,0.00,RA,,0.00,WeatherDisplay:10.37,2013-08-25 04:02:00,
2013-08-25 00:07:00,74.1,71.0,30.13,ENE,64,0.0,0.0,90,0.00,RA,,0.00,WeatherDisplay:10.37,2013-08-25 04:07:00,
2013-08-25 00:12:00,73.9,70.8,30.13,ENE,64,0.0,0.0,90,0.00,CLR,,0.00,WeatherDisplay:10.37,2013-08-25 04:12:00,
2013-08-25 00:17:00,73.9,70.8,30.13,ENE,64,0.0,0.0,90,0.00,CLR,,0.00,WeatherDisplay:10.37,2013-08-25 04:17:00,
2013-08-25 00:22:00,73.8,70.6,30.13,ENE,64,0.0,0.0,90,0.00,CLR,,0.00,WeatherDisplay:10.37,2013-08-25 04:22:00,
2013-08-25 00:27:00,73.8,70.6,30.13,ENE,64,0.0,0.0,90,0.00,CLR,,0.00,WeatherDisplay:10.37,2013-08-25 04:27:00,
2013-08-25 00:32:00,73.9,70.8,30.13,ENE,64,0.0,0.0,90,0.00,CLR,,0.00,WeatherDisplay:10.37,2013-08-25 04:32:00,
2013-08-25 00:37:00,73.8,70.6,30.13,ENE,64,0.0,0.0,90,0.00,CLR,,0.00,WeatherDisplay:10.37,2013-08-25 04:37:00,
2013-08-25 00:42:00,73.8,70.6,30.13,ENE,64,0.0,0.0,90,0.00,CLR,,0.00,WeatherDisplay:10.37,2013-08-25 04:42:00,
2013-08-25 00:47:00,73.8,70.6,30.13,ENE,64,0.0,0.0,90,0.00,CLR,,0.00,WeatherDisplay:10.37,2013-08-25 04:47:00,
2013-08-25 00:52:00,73.8,70.6,30.13,ENE,64,0.0,0.0,90,0.00,CLR,,0.00,WeatherDisplay:10.37,2013-08-25 04:52:00,
2013-08-25 00:57:00,73.8,70.6,30.13,ENE,64,0.0,0.0,90,0.00,CLR,,0.00,WeatherDisplay:10.37,2013-08-25 04:57:00,
2013-08-25 01:02:00,73.8,72.9,30.13,ENE,64,0.0,0.0,97,0.00,CLR,,0.00,WeatherDisplay:10.37,2013-08-25 05:02:00,
2013-08-25 01:07:00,73.8,72.9,30.13,ENE,64,0.0,0.0,97,0.00,CLR,,0.00,WeatherDisplay:10.37,2013-08-25 05:07:00,
2013-08-25 01:12:00,73.8,72.9,30.13,ENE,64,0.0,0.0,97,0.00,CLR,,0.00,WeatherDisplay:10.37,2013-08-25 05:12:00,
2013-08-25 01:17:00,73.6,72.7,30.13,ENE,64,0.0,0.0,97,0.00,CLR,,0.00,WeatherDisplay:10.37,2013-08-25 05:17:00,
2013-08-25 01:22:00,73.4,72.5,30.13,ENE,64,0.0,0.0,97,0.00,CLR,,0.00,WeatherDisplay:10.37,2013-08-25 05:22:00,
2013-08-25 01:27:00,73.4,72.5,30.13,ENE,64,0.0,0.0,97,0.00,CLR,,0.00,WeatherDisplay:10.37,2013-08-25 05:27:00,
2013-08-25 01:32:00,73.4,72.5,30.13,ENE,64,0.0,0.0,97,0.00,CLR,,0.00,WeatherDisplay:10.37,2013-08-25 05:32:00,
2013-08-25 01:37:00,73.2,72.3,30.13,ENE,64,0.0,0.0,97,0.00,CLR,,0.00,WeatherDisplay:10.37,2013-08-25 05:37:00,
2013-08-25 01:42:00,73.2,72.3,30.13,ENE,64,0.0,0.0,97,0.00,CLR,,0.00,WeatherDisplay:10.37,2013-08-25 05:42:00,
2013-08-25 01:47:00,73.0,72.1,30.13,ENE,64,0.0,0.0,97,0.00,CLR,,0.00,WeatherDisplay:10.37,2013-08-25 05:47:00,
2013-08-25 01:52:00,73.2,72.3,30.13,ENE,64,0.0,0.0,97,0.00,CLR,,0.00,WeatherDisplay:10.37,2013-08-25 05:52:00,
2013-08-25 01:57:00,73.2,72.3,30.13,ENE,64,0.0,0.0,97,0.00,CLR,,0.00,WeatherDisplay:10.37,2013-08-25 05:57:00,
2013-08-25 02:02:00,73.0,71.8,30.12,ENE,64,0.0,0.0,96,0.00,CLR,,0.00,WeatherDisplay:10.37,2013-08-25 06:02:00,
2013-08-25 02:07:00,73.2,72.0,30.12,NE,50,0.0,0.0,96,0.00,CLR,,0.00,WeatherDisplay:10.37,2013-08-25 06:07:00,
2013-08-25 02:12:00,73.4,72.2,30.12,North,357,3.5,0.0,96,0.00,CLR,,0.00,WeatherDisplay:10.37,2013-08-25 06:12:00,
2013-08-25 02:17:00,73.6,72.4,30.12,NNE,18,0.0,0.0,96,0.00,CLR,,0.00,WeatherDisplay:10.37,2013-08-25 06:17:00,
2013-08-25 02:22:00,73.6,72.4,30.12,NE,37,3.6,0.0,96,0.00,CLR,,0.00,WeatherDisplay:10.37,2013-08-25 06:22:00,
2013-08-25 02:27:00,73.6,72.4,30.12,NE,36,0.0,0.0,96,0.00,CLR,,0.00,WeatherDisplay:10.37,2013-08-25 06:27:00,
2013-08-25 02:32:00,73.6,72.4,30.12,NE,36,0.0,0.0,96,0.00,CLR,,0.00,WeatherDisplay:10.37,2013-08-25 06:32:00,
2013-08-25 02:37:00,73.4,72.2,30.12,NE,36,0.0,0.0,96,0.00,CLR,,0.00,WeatherDisplay:10.37,2013-08-25 06:37:00,
2013-08-25 02:43:00,73.4,72.2,30.12,NE,36,0.0,0.0,96,0.00,CLR,,0.00,WeatherDisplay:10.37,2013-08-25 06:43:00,
2013-08-25 02:48:00,73.2,72.0,30.12,NE,36,0.0,0.0,96,0.00,CLR,,0.00,WeatherDisplay:10.37,2013-08-25 06:48:00,
2013-08-25 02:53:00,73.2,72.0,30.12,NE,36,0.0,0.0,96,0.00,CLR,,0.00,WeatherDisplay:10.37,2013-08-25 06:53:00,
2013-08-25 02:58:00,73.0,71.8,30.12,NE,36,0.0,0.0,96,0.00,CLR,,0.00,WeatherDisplay:10.37,2013-08-25 06:58:00,
2013-08-25 03:03:00,73.0,71.8,30.11,NE,36,0.0,0.0,96,0.00,CLR,,0.00,WeatherDisplay:10.37,2013-08-25 07:03:00,
2013-08-25 03:08:00,73.0,71.8,30.11,NE,36,0.0,0.0,96,0.00,CLR,,0.00,WeatherDisplay:10.37,2013-08-25 07:08:00,
2013-08-25 03:13:00,73.0,71.8,30.11,NE,36,0.0,0.0,96,0.00,CLR,,0.00,WeatherDisplay:10.37,2013-08-25 07:13:00,
2013-08-25 03:18:00,73.2,72.0,30.11,NE,36,0.0,0.0,96,0.00,CLR,,0.00,WeatherDisplay:10.37,2013-08-25 07:18:00,
2013-08-25 03:23:00,73.4,72.2,30.11,NE,36,2.3,0.0,96,0.00,CLR,,0.00,WeatherDisplay:10.37,2013-08-25 07:23:00,
2013-08-25 03:28:00,73.4,72.2,30.11,NE,36,0.0,0.0,96,0.00,CLR,,0.00,WeatherDisplay:10.37,2013-08-25 07:28:00,
2013-08-25 03:33:00,73.4,72.2,30.11,NE,35,0.0,0.0,96,0.00,CLR,,0.00,WeatherDisplay:10.37,2013-08-25 07:33:00,
2013-08-25 03:38:00,73.4,72.2,30.11,NE,41,0.0,0.0,96,0.00,CLR,,0.00,WeatherDisplay:10.37,2013-08-25 07:38:00,
2013-08-25 03:43:00,73.6,72.4,30.11,NE,50,0.0,0.0,96,0.00,CLR,,0.00,WeatherDisplay:10.37,2013-08-25 07:43:00,
2013-08-25 03:48:00,73.4,72.2,30.11,NNE,28,0.0,0.0,96,0.00,CLR,,0.00,WeatherDisplay:10.37,2013-08-25 07:48:00,
2013-08-25 03:53:00,73.4,72.2,30.11,NNE,28,0.0,0.0,96,0.00,CLR,,0.00,WeatherDisplay:10.37,2013-08-25 07:53:00,
2013-08-25 03:58:00,73.4,72.2,30.11,NE,42,0.0,0.0,96,0.00,CLR,,0.00,WeatherDisplay:10.37,2013-08-25 07:58:00,
2013-08-25 04:03:00,73.4,72.5,30.11,NE,42,0.0,0.0,97,0.00,CLR,,0.00,WeatherDisplay:10.37,2013-08-25 08:03:00,
2013-08-25 04:08:00,73.4,72.5,30.11,NE,49,3.5,0.0,97,0.00,CLR,,0.00,WeatherDisplay:10.37,2013-08-25 08:08:00,
2013-08-25 04:13:00,73.4,72.5,30.11,NNE,19,3.6,0.0,97,0.00,CLR,,0.00,WeatherDisplay:10.37,2013-08-25 08:13:00,
2013-08-25 04:18:00,73.4,72.5,30.11,NE,37,0.0,0.0,97,0.00,CLR,,0.00,WeatherDisplay:10.37,2013-08-25 08:18:00,
2013-08-25 04:23:00,73.4,72.5,30.11,NE,38,2.3,0.0,97,0.00,CLR,,0.00,WeatherDisplay:10.37,2013-08-25 08:23:00,
2013-08-25 04:28:00,73.4,72.5,30.11,NE,38,0.0,0.0,97,0.00,CLR,,0.00,WeatherDisplay:10.37,2013-08-25 08:28:00,
2013-08-25 04:33:00,73.4,72.5,30.11,NE,38,0.0,0.0,97,0.00,CLR,,0.00,WeatherDisplay:10.37,2013-08-25 08:33:00,
2013-08-25 04:38:00,73.4,72.5,30.11,NE,38,0.0,0.0,97,0.00,CLR,,0.00,WeatherDisplay:10.37,2013-08-25 08:38:00,
2013-08-25 04:43:00,73.4,72.5,30.11,NE,38,0.0,0.0,97,0.00,CLR,,0.00,WeatherDisplay:10.37,2013-08-25 08:43:00,
2013-08-25 04:48:00,73.4,72.5,30.11,NE,38,0.0,0.0,97,0.00,CLR,,0.00,WeatherDisplay:10.37,2013-08-25 08:48:00,
2013-08-25 04:53:00,73.4,72.5,30.11,NE,38,0.0,0.0,97,0.00,CLR,,0.00,WeatherDisplay:10.37,2013-08-25 08:53:00,
2013-08-25 04:58:00,73.4,72.5,30.11,NE,37,3.5,0.0,97,0.00,CLR,,0.00,WeatherDisplay:10.37,2013-08-25 08:58:00,
2013-08-25 05:03:00,73.2,72.0,30.11,NE,37,0.0,0.0,96,0.00,CLR,,0.00,WeatherDisplay:10.37,2013-08-25 09:03:00,
2013-08-25 05:08:00,73.2,72.0,30.11,NE,55,0.0,0.0,96,0.00,CLR,,0.00,WeatherDisplay:10.37,2013-08-25 09:08:00,
2013-08-25 05:13:00,73.2,72.0,30.11,NE,55,0.0,0.0,96,0.00,CLR,,0.00,WeatherDisplay:10.37,2013-08-25 09:13:00,
2013-08-25 05:18:00,73.2,72.0,30.11,NE,55,0.0,0.0,96,0.00,CLR,,0.00,WeatherDisplay:10.37,2013-08-25 09:18:00,
2013-08-25 05:23:00,73.0,71.8,30.11,NE,55,0.0,0.0,96,0.00,CLR,,0.00,WeatherDisplay:10.37,2013-08-25 09:23:00,
2013-08-25 05:28:00,73.0,71.8,30.11,NE,55,0.0,0.0,96,0.00,CLR,,0.00,WeatherDisplay:10.37,2013-08-25 09:28:00,
2013-08-25 05:33:00,73.0,71.8,30.11,NE,55,0.0,0.0,96,0.00,CLR,,0.00,WeatherDisplay:10.37,2013-08-25 09:33:00,
2013-08-25 05:38:00,72.9,71.7,30.11,NE,55,0.0,0.0,96,0.00,CLR,,0.00,WeatherDisplay:10.37,2013-08-25 09:38:00,
2013-08-25 05:43:00,72.9,71.7,30.11,NE,55,0.0,0.0,96,0.00,CLR,,0.00,WeatherDisplay:10.37,2013-08-25 09:43:00,
2013-08-25 05:48:00,72.9,71.7,30.11,NE,34,0.0,0.0,96,0.00,CLR,,0.00,WeatherDisplay:10.37,2013-08-25 09:48:00,
2013-08-25 05:53:00,72.7,71.5,30.11,NE,34,0.0,0.0,96,0.00,CLR,,0.00,WeatherDisplay:10.37,2013-08-25 09:53:00,
2013-08-25 05:58:00,72.7,71.5,30.11,NE,34,0.0,0.0,96,0.00,CLR,,0.00,WeatherDisplay:10.37,2013-08-25 09:58:00,
2013-08-25 06:03:00,72.7,70.5,30.12,NE,39,2.3,0.0,93,0.00,CLR,,0.00,WeatherDisplay:10.37,2013-08-25 10:03:00,
2013-08-25 06:08:00,72.9,70.7,30.12,NE,48,0.0,0.0,93,0.00,CLR,,0.00,WeatherDisplay:10.37,2013-08-25 10:08:00,
2013-08-25 06:13:00,72.9,70.7,30.12,NE,48,0.0,0.0,93,0.00,CLR,,0.00,WeatherDisplay:10.37,2013-08-25 10:13:00,
2013-08-25 06:18:00,72.9,70.7,30.12,NE,48,0.0,0.0,93,0.00,CLR,,0.00,WeatherDisplay:10.37,2013-08-25 10:18:00,
2013-08-25 06:23:00,72.9,70.7,30.12,NE,48,2.3,0.0,93,0.00,CLR,,0.00,WeatherDisplay:10.37,2013-08-25 10:23:00,
2013-08-25 06:28:00,72.9,70.7,30.12,NE,48,2.3,0.0,93,0.00,CLR,,0.00,WeatherDisplay:10.37,2013-08-25 10:28:00,
2013-08-25 06:33:00,72.9,70.7,30.12,NE,48,0.0,0.0,93,0.00,CLR,,0.00,WeatherDisplay:10.37,2013-08-25 10:33:00,
2013-08-25 06:38:00,72.9,70.7,30.12,NE,48,0.0,0.0,93,0.00,CLR,,0.00,WeatherDisplay:10.37,2013-08-25 10:38:00,
2013-08-25 06:43:00,72.9,70.7,30.12,NE,48,0.0,0.0,93,0.00,CLR,,0.00,WeatherDisplay:10.37,2013-08-25 10:43:00,
2013-08-25 06:48:00,72.9,70.7,30.12,NE,48,0.0,0.0,93,0.00,CLR,,0.00,WeatherDisplay:10.37,2013-08-25 10:48:00,
2013-08-25 06:53:00,72.9,70.7,30.12,NE,48,0.0,0.0,93,0.00,CLR,,0.00,WeatherDisplay:10.37,2013-08-25 10:53:00,
2013-08-25 06:58:00,72.9,70.7,30.12,NE,48,0.0,0.0,93,0.00,CLR,,0.00,WeatherDisplay:10.37,2013-08-25 10:58:00,
2013-08-25 07:03:00,72.9,70.7,30.13,NE,48,0.0,0.0,93,0.00,CLR,,0.00,WeatherDisplay:10.37,2013-08-25 11:03:00,
2013-08-25 07:08:00,72.9,70.7,30.13,NE,48,0.0,0.0,93,0.00,CLR,,0.00,WeatherDisplay:10.37,2013-08-25 11:08:00,
2013-08-25 07:13:00,72.9,70.7,30.13,NE,48,0.0,0.0,93,0.00,CLR,,0.00,WeatherDisplay:10.37,2013-08-25 11:13:00,
2013-08-25 07:18:00,72.9,70.7,30.13,NE,48,0.0,0.0,93,0.00,CLR,,0.00,WeatherDisplay:10.37,2013-08-25 11:18:00,
2013-08-25 07:23:00,72.9,70.7,30.13,NE,48,0.0,0.0,93,0.00,CLR,,0.00,WeatherDisplay:10.37,2013-08-25 11:23:00,
2013-08-25 07:28:00,72.9,70.7,30.13,NE,48,0.0,0.0,93,0.00,CLR,,0.00,WeatherDisplay:10.37,2013-08-25 11:28:00,
2013-08-25 07:33:00,73.0,70.9,30.13,NE,48,0.0,0.0,93,0.00,CLR,,0.00,WeatherDisplay:10.37,2013-08-25 11:33:00,
2013-08-25 07:38:00,73.0,70.9,30.13,NE,48,0.0,0.0,93,0.00,CLR,,0.00,WeatherDisplay:10.37,2013-08-25 11:38:00,
2013-08-25 07:43:00,73.2,71.1,30.13,NE,48,0.0,0.0,93,0.00,CLR,,0.00,WeatherDisplay:10.37,2013-08-25 11:43:00,
2013-08-25 07:48:00,73.4,71.3,30.13,NE,48,0.0,0.0,93,0.00,CLR,,0.00,WeatherDisplay:10.37,2013-08-25 11:48:00,
2013-08-25 07:53:00,73.8,71.6,30.13,NE,48,0.0,0.0,93,0.00,CLR,,0.00,WeatherDisplay:10.37,2013-08-25 11:53:00,
2013-08-25 07:58:00,73.9,71.8,30.13,NE,48,0.0,0.0,93,0.00,CLR,,0.00,WeatherDisplay:10.37,2013-08-25 11:58:00,
2013-08-25 08:03:00,74.3,73.4,30.15,NE,48,0.0,0.0,97,0.00,CLR,,0.00,WeatherDisplay:10.37,2013-08-25 12:03:00,
2013-08-25 08:08:00,74.8,73.9,30.15,NE,47,3.5,0.0,97,0.00,CLR,,0.00,WeatherDisplay:10.37,2013-08-25 12:08:00,
2013-08-25 08:13:00,75.2,74.3,30.15,ENE,59,0.0,0.0,97,0.00,CLR,,0.00,WeatherDisplay:10.37,2013-08-25 12:13:00,
2013-08-25 08:18:00,75.7,74.8,30.15,NE,39,0.0,0.0,97,0.00,CLR,,0.00,WeatherDisplay:10.37,2013-08-25 12:18:00,
2013-08-25 08:23:00,76.3,75.4,30.15,ENE,66,3.5,3.5,97,0.00,CLR,,0.00,WeatherDisplay:10.37,2013-08-25 12:23:00,
2013-08-25 08:28:00,76.6,75.7,30.15,ENE,59,5.8,5.8,97,0.00,CLR,,0.00,WeatherDisplay:10.37,2013-08-25 12:28:00,
2013-08-25 08:33:00,77.0,76.1,30.15,ENE,76,3.5,3.5,97,0.00,CLR,,0.00,WeatherDisplay:10.37,2013-08-25 12:33:00,
2013-08-25 08:38:00,77.2,76.3,30.15,ENE,70,4.6,0.0,97,0.00,CLR,,0.00,WeatherDisplay:10.37,2013-08-25 12:38:00,
2013-08-25 08:43:00,77.4,76.4,30.15,ENE,69,3.5,0.0,97,0.00,CLR,,0.00,WeatherDisplay:10.37,2013-08-25 12:43:00,
2013-08-25 08:48:00,77.9,77.0,30.15,East,86,3.5,3.5,97,0.00,CLR,,0.00,WeatherDisplay:10.37,2013-08-25 12:48:00,
2013-08-25 08:53:00,78.8,77.9,30.15,East,90,5.8,5.8,97,0.00,CLR,,0.00,WeatherDisplay:10.37,2013-08-25 12:53:00,
2013-08-25 08:58:00,79.5,78.6,30.15,ENE,61,5.8,5.8,97,0.00,CLR,,0.00,WeatherDisplay:10.37,2013-08-25 12:58:00,
2013-08-25 09:03:00,80.2,77.0,30.15,ENE,76,4.9,4.9,90,0.00,CLR,,0.00,WeatherDisplay:10.37,2013-08-25 13:03:00,
2013-08-25 09:08:00,80.6,77.4,30.15,ENE,71,5.8,5.8,90,0.00,CLR,,0.00,WeatherDisplay:10.37,2013-08-25 13:08:00,
2013-08-25 09:13:00,81.1,77.9,30.15,East,88,5.8,5.8,90,0.00,CLR,,0.00,WeatherDisplay:10.37,2013-08-25 13:13:00,
2013-08-25 09:18:00,81.9,78.6,30.15,ENE,60,3.5,3.5,90,0.00,CLR,,0.00,WeatherDisplay:10.37,2013-08-25 13:18:00,
2013-08-25 09:24:00,82.2,79.0,30.15,ENE,78,8.1,8.1,90,0.00,CLR,,0.00,WeatherDisplay:10.37,2013-08-25 13:24:00,
2013-08-25 09:29:00,82.6,79.3,30.15,East,79,3.5,3.5,90,0.00,CLR,,0.00,WeatherDisplay:10.37,2013-08-25 13:29:00,
2013-08-25 09:34:00,82.6,79.3,30.15,ENE,76,5.8,5.8,90,0.00,CLR,,0.00,WeatherDisplay:10.37,2013-08-25 13:34:00,
2013-08-25 09:39:00,82.6,79.3,30.15,NE,39,8.1,8.1,90,0.00,CLR,,0.00,WeatherDisplay:10.37,2013-08-25 13:39:00,
2013-08-25 09:44:00,82.9,79.7,30.15,ENE,63,5.8,5.8,90,0.00,CLR,,0.00,WeatherDisplay:10.37,2013-08-25 13:44:00,
2013-08-25 09:49:00,82.6,79.3,30.15,East,100,6.3,6.3,90,0.00,CLR,,0.00,WeatherDisplay:10.37,2013-08-25 13:49:00,
2013-08-25 09:54:00,82.2,79.0,30.15,SE,128,4.9,4.9,90,0.00,CLR,,0.00,WeatherDisplay:10.37,2013-08-25 13:54:00,
2013-08-25 09:59:00,82.0,78.8,30.15,SE,132,3.5,3.6,90,0.00,CLR,,0.00,WeatherDisplay:10.37,2013-08-25 13:59:00,
2013-08-25 10:04:00,82.2,75.8,30.18,ENE,67,5.8,5.8,81,0.00,SCT,,0.00,WeatherDisplay:10.37,2013-08-25 14:04:00,
2013-08-25 10:09:00,82.0,75.6,30.18,East,83,3.5,0.0,81,0.00,SCT,,0.00,WeatherDisplay:10.37,2013-08-25 14:09:00,
2013-08-25 10:14:00,81.9,75.5,30.18,ENE,76,5.8,5.8,81,0.00,SCT,,0.00,WeatherDisplay:10.37,2013-08-25 14:14:00,
2013-08-25 10:19:00,82.2,75.8,30.18,East,100,5.8,5.8,81,0.00,SCT,,0.00,WeatherDisplay:10.37,2013-08-25 14:19:00,
2013-08-25 10:24:00,82.8,76.3,30.18,SE,126,5.8,5.8,81,0.00,SCT,,0.00,WeatherDisplay:10.37,2013-08-25 14:24:00,
2013-08-25 10:29:00,82.8,76.3,30.18,SE,134,5.8,5.8,81,0.00,SCT,,0.00,WeatherDisplay:10.37,2013-08-25 14:29:00,
2013-08-25 10:34:00,82.9,76.5,30.18,SE,129,5.8,5.8,81,0.00,SCT,,0.00,WeatherDisplay:10.37,2013-08-25 14:34:00,
2013-08-25 10:39:00,83.5,77.0,30.18,ESE,112,5.8,5.8,81,0.00,SCT,,0.00,WeatherDisplay:10.37,2013-08-25 14:39:00,
2013-08-25 10:44:00,83.8,77.4,30.18,SSE,157,5.8,5.8,81,0.00,SCT,,0.00,WeatherDisplay:10.37,2013-08-25 14:44:00,
2013-08-25 10:49:00,84.4,77.9,30.18,ENE,71,3.5,0.0,81,0.00,SCT,,0.00,WeatherDisplay:10.37,2013-08-25 14:49:00,
2013-08-25 10:54:00,84.2,77.7,30.18,SSE,163,5.8,5.8,81,0.00,SCT,,0.00,WeatherDisplay:10.37,2013-08-25 14:54:00,
2013-08-25 10:59:00,83.8,77.4,30.18,East,95,3.5,0.0,81,0.00,SCT,,0.00,WeatherDisplay:10.37,2013-08-25 14:59:00,
2013-08-25 11:04:00,83.8,74.7,30.18,ENE,57,2.7,0.0,74,0.00,BKN,,0.00,WeatherDisplay:10.37,2013-08-25 15:04:00,
2013-08-25 11:09:00,83.3,74.1,30.18,NE,55,8.0,8.0,74,0.00,BKN,,0.00,WeatherDisplay:10.37,2013-08-25 15:09:00,
2013-08-25 11:14:00,81.5,72.4,30.18,ENE,67,12.7,12.7,74,0.00,BKN,,0.00,WeatherDisplay:10.37,2013-08-25 15:14:00,
2013-08-25 11:19:00,79.7,70.7,30.18,East,99,10.5,10.5,74,0.00,BKN,,0.00,WeatherDisplay:10.37,2013-08-25 15:19:00,
2013-08-25 11:24:00,78.1,69.1,30.18,SSE,156,10.4,10.4,74,0.00,BKN,,0.00,WeatherDisplay:10.37,2013-08-25 15:24:00,
2013-08-25 11:29:00,76.6,67.7,30.18,SSE,157,5.8,5.8,74,0.04,RA,,0.04,WeatherDisplay:10.37,2013-08-25 15:29:00,
2013-08-25 11:34:00,75.7,66.9,30.18,SSE,163,3.6,0.0,74,0.04,RA,,0.04,WeatherDisplay:10.37,2013-08-25 15:34:00,
2013-08-25 11:39:00,75.2,66.3,30.18,South,178,4.6,4.6,74,0.04,BKN,,0.04,WeatherDisplay:10.37,2013-08-25 15:39:00,
2013-08-25 11:44:00,74.8,66.0,30.18,SSE,150,0.0,0.0,74,0.04,BKN,,0.04,WeatherDisplay:10.37,2013-08-25 15:44:00,
2013-08-25 11:49:00,74.8,66.0,30.18,SSE,150,0.0,0.0,74,0.04,BKN,,0.04,WeatherDisplay:10.37,2013-08-25 15:49:00,
2013-08-25 11:54:00,75.2,66.3,30.18,SSE,150,0.0,0.0,74,0.04,BKN,,0.04,WeatherDisplay:10.37,2013-08-25 15:54:00,
2013-08-25 11:59:00,75.6,66.7,30.18,SSE,150,0.0,0.0,74,0.04,BKN,,0.04,WeatherDisplay:10.37,2013-08-25 15:59:00,
2013-08-25 12:04:00,75.4,64.5,30.18,SSE,150,0.0,0.0,69,0.04,SCT,,0.04,WeatherDisplay:10.37,2013-08-25 16:04:00,
2013-08-25 12:09:00,75.9,65.0,30.18,SSE,150,0.0,0.0,69,0.04,SCT,,0.04,WeatherDisplay:10.37,2013-08-25 16:09:00,
2013-08-25 12:14:00,76.3,65.4,30.18,SSE,150,0.0,0.0,69,0.04,SCT,,0.04,WeatherDisplay:10.37,2013-08-25 16:14:00,
2013-08-25 12:19:00,76.8,65.9,30.18,South,186,0.0,0.0,69,0.04,SCT,,0.04,WeatherDisplay:10.37,2013-08-25 16:19:00,
2013-08-25 12:24:00,77.2,66.2,30.18,South,186,0.0,0.0,69,0.04,SCT,,0.04,WeatherDisplay:10.37,2013-08-25 16:24:00,
2013-08-25 12:29:00,78.1,67.1,30.18,West,269,0.0,0.0,69,0.00,SCT,,0.04,WeatherDisplay:10.37,2013-08-25 16:29:00,
2013-08-25 12:34:00,78.8,67.8,30.18,West,269,0.0,0.0,69,0.00,SCT,,0.04,WeatherDisplay:10.37,2013-08-25 16:34:00,
2013-08-25 12:39:00,79.3,68.3,30.18,West,269,2.3,0.0,69,0.00,SCT,,0.04,WeatherDisplay:10.37,2013-08-25 16:39:00,
2013-08-25 12:44:00,80.1,69.0,30.18,ENE,78,4.0,4.0,69,0.00,SCT,,0.04,WeatherDisplay:10.37,2013-08-25 16:44:00,
2013-08-25 12:49:00,80.4,69.3,30.18,ESE,108,5.8,5.8,69,0.00,SCT,,0.04,WeatherDisplay:10.37,2013-08-25 16:49:00,
2013-08-25 12:54:00,81.0,69.8,30.18,ESE,119,5.8,5.8,69,0.00,SCT,,0.04,WeatherDisplay:10.37,2013-08-25 16:54:00,
2013-08-25 12:59:00,81.1,70.0,30.18,ESE,123,8.1,8.1,69,0.00,SCT,,0.04,WeatherDisplay:10.37,2013-08-25 16:59:00,
2013-08-25 13:04:00,81.5,74.4,30.17,East,87,4.6,4.6,79,0.00,BKN,,0.04,WeatherDisplay:10.37,2013-08-25 17:04:00,
2013-08-25 13:09:00,82.2,75.1,30.17,ENE,77,5.8,5.8,79,0.00,BKN,,0.04,WeatherDisplay:10.37,2013-08-25 17:09:00,
2013-08-25 13:14:00,82.8,75.6,30.17,ESE,119,5.8,5.8,79,0.00,BKN,,0.04,WeatherDisplay:10.37,2013-08-25 17:14:00,
2013-08-25 13:19:00,82.8,75.6,30.17,East,101,5.8,5.8,79,0.00,BKN,,0.04,WeatherDisplay:10.37,2013-08-25 17:19:00,
2013-08-25 13:24:00,82.8,75.6,30.17,East,87,5.4,5.4,79,0.00,BKN,,0.04,WeatherDisplay:10.37,2013-08-25 17:24:00,
2013-08-25 13:29:00,82.9,75.8,30.17,ESE,108,5.8,5.8,79,0.00,BKN,,0.04,WeatherDisplay:10.37,2013-08-25 17:29:00,
2013-08-25 13:34:00,82.9,75.8,30.17,South,171,5.8,5.8,79,0.00,BKN,,0.04,WeatherDisplay:10.37,2013-08-25 17:34:00,
2013-08-25 13:39:00,83.1,75.9,30.17,SSE,153,5.8,5.8,79,0.00,BKN,,0.04,WeatherDisplay:10.37,2013-08-25 17:39:00,
2013-08-25 13:44:00,82.9,75.8,30.17,SE,144,5.8,5.8,79,0.00,BKN,,0.04,WeatherDisplay:10.37,2013-08-25 17:44:00,
2013-08-25 13:49:00,82.6,75.4,30.17,SE,126,5.8,5.8,79,0.00,BKN,,0.04,WeatherDisplay:10.37,2013-08-25 17:49:00,
2013-08-25 13:54:00,82.6,75.4,30.17,SE,136,3.5,0.0,79,0.00,BKN,,0.04,WeatherDisplay:10.37,2013-08-25 17:54:00,
2013-08-25 13:59:00,82.8,75.6,30.17,SE,129,4.6,4.6,79,0.00,BKN,,0.04,WeatherDisplay:10.37,2013-08-25 17:59:00,
2013-08-25 14:04:00,83.1,71.0,30.16,ESE,118,2.3,0.0,67,0.00,FEW,,0.04,WeatherDisplay:10.37,2013-08-25 18:04:00,
2013-08-25 14:09:00,83.1,71.0,30.16,ESE,114,5.8,0.0,67,0.00,FEW,,0.04,WeatherDisplay:10.37,2013-08-25 18:09:00,
2013-08-25 14:14:00,83.3,71.2,30.16,ESE,117,3.5,3.5,67,0.00,FEW,,0.04,WeatherDisplay:10.37,2013-08-25 18:14:00,
2013-08-25 14:19:00,83.5,71.4,30.16,SSE,148,2.3,0.0,67,0.00,FEW,,0.04,WeatherDisplay:10.37,2013-08-25 18:19:00,
2013-08-25 14:24:00,83.3,71.2,30.16,SE,131,5.8,5.8,67,0.00,FEW,,0.04,WeatherDisplay:10.37,2013-08-25 18:24:00,
2013-08-25 14:29:00,83.7,71.5,30.16,SE,133,3.5,3.5,67,0.00,FEW,,0.04,WeatherDisplay:10.37,2013-08-25 18:29:00,
2013-08-25 14:34:00,83.8,71.7,30.16,East,81,2.3,0.0,67,0.00,FEW,,0.04,WeatherDisplay:10.37,2013-08-25 18:34:00,
2013-08-25 14:40:00,84.0,71.9,30.16,East,81,8.1,8.1,67,0.00,FEW,,0.04,WeatherDisplay:10.37,2013-08-25 18:40:00,
2013-08-25 14:45:00,82.9,70.9,30.16,ESE,107,8.1,8.1,67,0.00,FEW,,0.04,WeatherDisplay:10.37,2013-08-25 18:45:00,
2013-08-25 14:50:00,80.2,68.3,30.16,SSE,162,5.8,5.8,67,0.04,RA,,0.08,WeatherDisplay:10.37,2013-08-25 18:50:00,
2013-08-25 14:55:00,79.7,67.8,30.16,SSE,165,3.5,0.0,67,0.04,RA,,0.08,WeatherDisplay:10.37,2013-08-25 18:55:00,
2013-08-25 15:00:00,79.9,67.9,30.16,South,169,2.2,0.0,67,0.04,FEW,,0.08,WeatherDisplay:10.37,2013-08-25 19:00:00,
2013-08-25 15:05:00,79.9,67.9,30.16,SSE,165,2.3,0.0,67,0.04,FEW,,0.08,WeatherDisplay:10.37,2013-08-25 19:05:00,
2013-08-25 15:10:00,80.1,68.1,30.16,ESE,116,3.5,0.0,67,0.04,FEW,,0.08,WeatherDisplay:10.37,2013-08-25 19:10:00,
2013-08-25 15:15:00,80.1,68.1,30.16,ESE,118,3.5,3.5,67,0.04,FEW,,0.08,WeatherDisplay:10.37,2013-08-25 19:15:00,
2013-08-25 15:20:00,80.4,68.5,30.16,SSE,149,3.5,3.5,67,0.04,FEW,,0.08,WeatherDisplay:10.37,2013-08-25 19:20:00,
2013-08-25 15:25:00,80.6,68.6,30.16,SSE,158,0.0,0.0,67,0.04,FEW,,0.08,WeatherDisplay:10.37,2013-08-25 19:25:00,
2013-08-25 15:30:00,81.0,69.0,30.16,SW,215,4.0,0.0,67,0.04,FEW,,0.08,WeatherDisplay:10.37,2013-08-25 19:30:00,
2013-08-25 15:35:00,81.1,69.1,30.16,South,184,3.5,3.6,67,0.04,FEW,,0.08,WeatherDisplay:10.37,2013-08-25 19:35:00,
2013-08-25 15:40:00,81.1,69.1,30.16,SSE,168,3.5,0.0,67,0.04,FEW,,0.08,WeatherDisplay:10.37,2013-08-25 19:40:00,
2013-08-25 15:45:00,81.5,69.5,30.16,South,180,3.5,3.6,67,0.04,FEW,,0.08,WeatherDisplay:10.37,2013-08-25 19:45:00,
2013-08-25 15:50:00,81.5,69.5,30.16,South,171,3.5,3.5,67,0.00,FEW,,0.08,WeatherDisplay:10.37,2013-08-25 19:50:00,
2013-08-25 15:55:00,81.5,69.5,30.16,SE,130,3.5,3.5,67,0.00,FEW,,0.08,WeatherDisplay:10.37,2013-08-25 19:55:00,
2013-08-25 16:00:00,81.7,69.7,30.16,East,93,5.8,5.8,67,0.00,FEW,,0.08,WeatherDisplay:10.37,2013-08-25 20:00:00,
2013-08-25 16:05:00,81.9,68.9,30.13,SSE,166,8.1,8.1,65,0.00,FEW,,0.08,WeatherDisplay:10.37,2013-08-25 20:05:00,
2013-08-25 16:10:00,81.7,68.8,30.13,ESE,117,4.6,4.6,65,0.00,FEW,,0.08,WeatherDisplay:10.37,2013-08-25 20:10:00,
2013-08-25 16:15:00,81.5,68.6,30.13,ESE,121,3.0,6.0,65,0.00,FEW,,0.08,WeatherDisplay:10.37,2013-08-25 20:15:00,
2013-08-25 16:20:00,81.7,68.8,30.13,ENE,76,3.6,4.0,65,0.00,FEW,,0.08,WeatherDisplay:10.37,2013-08-25 20:20:00,
2013-08-25 16:25:00,81.9,68.9,30.13,East,88,8.1,8.1,65,0.00,FEW,,0.08,WeatherDisplay:10.37,2013-08-25 20:25:00,
2013-08-25 16:30:00,82.0,69.1,30.13,East,88,8.1,8.1,65,0.00,FEW,,0.08,WeatherDisplay:10.37,2013-08-25 20:30:00,
2013-08-25 16:35:00,82.4,69.4,30.13,East,79,3.0,7.0,65,0.00,FEW,,0.08,WeatherDisplay:10.37,2013-08-25 20:35:00,
2013-08-25 16:40:00,82.6,69.6,30.13,ESE,109,5.8,5.8,65,0.00,FEW,,0.08,WeatherDisplay:10.37,2013-08-25 20:40:00,
2013-08-25 16:45:00,82.6,69.6,30.13,ENE,69,3.6,3.6,65,0.00,FEW,,0.08,WeatherDisplay:10.37,2013-08-25 20:45:00,
2013-08-25 16:50:00,82.8,69.8,30.13,East,82,3.0,9.0,65,0.00,FEW,,0.08,WeatherDisplay:10.37,2013-08-25 20:50:00,
2013-08-25 16:55:00,82.8,69.8,30.13,East,84,8.3,8.3,65,0.00,FEW,,0.08,WeatherDisplay:10.37,2013-08-25 20:55:00,
2013-08-25 17:00:00,82.6,69.6,30.13,East,80,6.0,9.0,65,0.00,FEW,,0.08,WeatherDisplay:10.37,2013-08-25 21:00:00,
2013-08-25 17:05:00,82.6,71.4,30.12,East,79,6.0,8.0,69,0.00,FEW,,0.08,WeatherDisplay:10.37,2013-08-25 21:05:00,
2013-08-25 17:10:00,82.6,71.4,30.12,East,93,5.8,5.8,69,0.00,FEW,,0.08,WeatherDisplay:10.37,2013-08-25 21:10:00,
2013-08-25 17:15:00,82.6,71.4,30.12,ENE,65,5.0,8.0,69,0.00,FEW,,0.08,WeatherDisplay:10.37,2013-08-25 21:15:00,
2013-08-25 17:20:00,82.6,71.4,30.12,ENE,76,3.0,8.0,69,0.00,FEW,,0.08,WeatherDisplay:10.37,2013-08-25 21:20:00,
2013-08-25 17:25:00,82.6,71.4,30.12,East,88,5.0,8.0,69,0.00,FEW,,0.08,WeatherDisplay:10.37,2013-08-25 21:25:00,
2013-08-25 17:30:00,82.6,71.4,30.12,East,85,5.4,5.4,69,0.00,FEW,,0.08,WeatherDisplay:10.37,2013-08-25 21:30:00,
2013-08-25 17:35:00,82.4,71.2,30.12,East,85,5.8,5.8,69,0.00,FEW,,0.08,WeatherDisplay:10.37,2013-08-25 21:35:00,
2013-08-25 17:40:00,82.2,71.0,30.12,East,90,5.0,8.0,69,0.00,FEW,,0.08,WeatherDisplay:10.37,2013-08-25 21:40:00,
2013-08-25 17:45:00,82.0,70.9,30.12,East,81,5.8,5.8,69,0.00,FEW,,0.08,WeatherDisplay:10.37,2013-08-25 21:45:00,
2013-08-25 17:50:00,82.0,70.9,30.12,NE,50,5.8,5.8,69,0.00,FEW,,0.08,WeatherDisplay:10.37,2013-08-25 21:50:00,
2013-08-25 17:55:00,81.9,70.7,30.12,East,79,3.0,6.0,69,0.00,FEW,,0.08,WeatherDisplay:10.37,2013-08-25 21:55:00,
2013-08-25 18:00:00,82.0,70.9,30.12,ESE,110,5.8,5.8,69,0.00,FEW,,0.08,WeatherDisplay:10.37,2013-08-25 22:00:00,
2013-08-25 18:05:00,82.0,72.9,30.11,East,80,5.8,5.8,74,0.00,CLR,,0.08,WeatherDisplay:10.37,2013-08-25 22:05:00,
2013-08-25 18:10:00,82.0,72.9,30.11,ENE,69,5.0,8.0,74,0.00,CLR,,0.08,WeatherDisplay:10.37,2013-08-25 22:10:00,
2013-08-25 18:15:00,81.9,72.8,30.11,East,79,3.0,6.0,74,0.00,CLR,,0.08,WeatherDisplay:10.37,2013-08-25 22:15:00,
2013-08-25 18:20:00,81.9,72.8,30.11,East,86,2.3,0.0,74,0.00,CLR,,0.08,WeatherDisplay:10.37,2013-08-25 22:20:00,
2013-08-25 18:25:00,81.9,72.8,30.11,NE,47,3.6,3.6,74,0.00,CLR,,0.08,WeatherDisplay:10.37,2013-08-25 22:25:00,
2013-08-25 18:30:00,81.7,72.6,30.11,East,79,3.6,3.6,74,0.00,CLR,,0.08,WeatherDisplay:10.37,2013-08-25 22:30:00,
2013-08-25 18:35:00,81.6,72.5,30.11,East,79,0.0,6.0,74,0.00,CLR,,0.08,WeatherDisplay:10.37,2013-08-25 22:35:00,
2013-08-25 18:40:00,81.3,72.2,30.11,East,92,8.3,8.3,74,0.00,CLR,,0.08,WeatherDisplay:10.37,2013-08-25 22:40:00,
2013-08-25 18:45:00,81.3,72.2,30.11,East,83,4.6,4.6,74,0.00,CLR,,0.08,WeatherDisplay:10.37,2013-08-25 22:45:00,
2013-08-25 18:50:00,81.1,72.1,30.11,ENE,76,8.1,8.1,74,0.00,CLR,,0.08,WeatherDisplay:10.37,2013-08-25 22:50:00,
2013-08-25 18:55:00,81.0,71.9,30.11,ENE,66,3.0,8.0,74,0.00,CLR,,0.08,WeatherDisplay:10.37,2013-08-25 22:55:00,
2013-08-25 19:00:00,80.8,71.7,30.11,NE,53,8.1,8.1,74,0.00,CLR,,0.08,WeatherDisplay:10.37,2013-08-25 23:00:00,
2013-08-25 19:05:00,80.4,71.4,30.11,ENE,62,2.0,8.0,74,0.00,CLR,,0.08,WeatherDisplay:10.37,2013-08-25 23:05:00,
2013-08-25 19:10:00,80.2,71.2,30.11,East,81,5.8,5.8,74,0.00,CLR,,0.08,WeatherDisplay:10.37,2013-08-25 23:10:00,
2013-08-25 19:15:00,79.9,70.8,30.11,NE,52,8.1,8.1,74,0.00,CLR,,0.08,WeatherDisplay:10.37,2013-08-25 23:15:00,
2013-08-25 19:20:00,79.8,70.8,30.11,ENE,59,3.0,6.0,74,0.00,CLR,,0.08,WeatherDisplay:10.37,2013-08-25 23:20:00,
2013-08-25 19:25:00,79.5,70.5,30.11,ENE,59,3.5,0.0,74,0.00,CLR,,0.08,WeatherDisplay:10.37,2013-08-25 23:25:00,
2013-08-25 19:30:00,79.3,70.3,30.11,NE,50,0.0,0.0,74,0.00,CLR,,0.08,WeatherDisplay:10.37,2013-08-25 23:30:00,
2013-08-25 19:35:00,79.2,70.2,30.11,NE,56,0.0,0.0,74,0.00,CLR,,0.08,WeatherDisplay:10.37,2013-08-25 23:35:00,
2013-08-25 19:40:00,79.0,70.0,30.11,ENE,71,3.5,3.5,74,0.00,CLR,,0.08,WeatherDisplay:10.37,2013-08-25 23:40:00,
2013-08-25 19:45:00,78.8,69.8,30.11,ENE,61,5.8,5.8,74,0.00,CLR,,0.08,WeatherDisplay:10.37,2013-08-25 23:45:00,
2013-08-25 19:50:00,78.5,69.5,30.11,NE,56,0.0,6.0,74,0.00,CLR,,0.08,WeatherDisplay:10.37,2013-08-25 23:50:00,
2013-08-25 19:55:00,78.1,69.1,30.11,ENE,66,3.5,0.0,74,0.00,CLR,,0.08,WeatherDisplay:10.37,2013-08-25 23:55:00,
2013-08-25 20:00:00,77.9,68.9,30.11,ENE,59,2.0,6.0,74,0.00,CLR,,0.08,WeatherDisplay:10.37,2013-08-26 00:00:00,
2013-08-25 20:05:00,77.5,67.4,30.11,ENE,68,3.5,3.5,71,0.00,FEW,,0.08,WeatherDisplay:10.37,2013-08-26 00:05:00,
2013-08-25 20:10:00,77.4,67.2,30.11,NE,46,3.5,3.5,71,0.00,FEW,,0.08,WeatherDisplay:10.37,2013-08-26 00:10:00,
2013-08-25 20:15:00,77.2,67.0,30.11,ENE,61,2.0,4.0,71,0.00,FEW,,0.08,WeatherDisplay:10.37,2013-08-26 00:15:00,
2013-08-25 20:20:00,77.0,66.9,30.11,ENE,63,0.0,0.0,71,0.00,FEW,,0.08,WeatherDisplay:10.37,2013-08-26 00:20:00,
2013-08-25 20:25:00,76.8,66.7,30.11,ENE,63,0.0,0.0,71,0.00,FEW,,0.08,WeatherDisplay:10.37,2013-08-26 00:25:00,
2013-08-25 20:30:00,76.8,66.7,30.11,ENE,77,0.0,0.0,71,0.00,FEW,,0.08,WeatherDisplay:10.37,2013-08-26 00:30:00,
2013-08-25 20:35:00,76.6,66.5,30.11,ENE,77,0.0,0.0,71,0.00,FEW,,0.08,WeatherDisplay:10.37,2013-08-26 00:35:00,
2013-08-25 20:40:00,76.5,66.4,30.11,East,81,0.0,0.0,71,0.00,FEW,,0.08,WeatherDisplay:10.37,2013-08-26 00:40:00,
2013-08-25 20:45:00,76.5,66.4,30.11,East,80,0.0,0.0,71,0.00,FEW,,0.08,WeatherDisplay:10.37,2013-08-26 00:45:00,
2013-08-25 20:50:00,76.3,66.2,30.11,East,81,0.0,0.0,71,0.00,FEW,,0.08,WeatherDisplay:10.37,2013-08-26 00:50:00,
2013-08-25 20:55:00,76.3,66.2,30.11,East,81,0.0,0.0,71,0.00,FEW,,0.08,WeatherDisplay:10.37,2013-08-26 00:55:00,
2013-08-25 21:00:00,76.1,66.0,30.11,East,81,0.0,0.0,71,0.00,FEW,,0.08,WeatherDisplay:10.37,2013-08-26 01:00:00,
2013-08-25 21:05:00,75.9,70.7,30.15,East,81,0.0,0.0,84,0.00,CLR,,0.08,WeatherDisplay:10.37,2013-08-26 01:05:00,
2013-08-25 21:10:00,75.9,70.7,30.15,East,81,0.0,0.0,84,0.00,CLR,,0.08,WeatherDisplay:10.37,2013-08-26 01:10:00,
2013-08-25 21:15:00,75.7,70.6,30.15,East,81,0.0,0.0,84,0.00,CLR,,0.08,WeatherDisplay:10.37,2013-08-26 01:15:00,
2013-08-25 21:20:00,75.7,70.6,30.15,East,81,0.0,0.0,84,0.00,CLR,,0.08,WeatherDisplay:10.37,2013-08-26 01:20:00,
2013-08-25 21:25:00,75.7,70.6,30.15,East,81,0.0,0.0,84,0.00,CLR,,0.08,WeatherDisplay:10.37,2013-08-26 01:25:00,
2013-08-25 21:30:00,75.6,70.4,30.15,East,81,0.0,0.0,84,0.00,CLR,,0.08,WeatherDisplay:10.37,2013-08-26 01:30:00,
2013-08-25 21:35:00,75.6,70.4,30.15,East,81,0.0,0.0,84,0.00,CLR,,0.08,WeatherDisplay:10.37,2013-08-26 01:35:00,
2013-08-25 21:40:00,75.6,70.4,30.15,East,81,0.0,0.0,84,0.00,CLR,,0.08,WeatherDisplay:10.37,2013-08-26 01:40:00,
2013-08-25 21:45:00,75.4,70.2,30.15,East,81,0.0,0.0,84,0.00,CLR,,0.08,WeatherDisplay:10.37,2013-08-26 01:45:00,
2013-08-25 21:50:00,75.4,70.2,30.15,East,81,0.0,0.0,84,0.00,CLR,,0.08,WeatherDisplay:10.37,2013-08-26 01:50:00,
2013-08-25 21:55:00,75.2,70.0,30.15,East,81,0.0,0.0,84,0.00,CLR,,0.08,WeatherDisplay:10.37,2013-08-26 01:55:00,
2013-08-25 22:00:00,75.2,70.0,30.15,North,8,0.0,0.0,84,0.00,CLR,,0.08,WeatherDisplay:10.37,2013-08-26 02:00:00,
2013-08-25 22:05:00,75.2,72.1,30.16,NNE,30,0.0,0.0,90,0.00,CLR,,0.08,WeatherDisplay:10.37,2013-08-26 02:05:00,
2013-08-25 22:10:00,75.2,72.1,30.16,NNW,338,0.0,0.0,90,0.00,CLR,,0.08,WeatherDisplay:10.37,2013-08-26 02:10:00,
2013-08-25 22:15:00,75.2,72.1,30.16,North,353,0.0,0.0,90,0.00,CLR,,0.08,WeatherDisplay:10.37,2013-08-26 02:15:00,
2013-08-25 22:20:00,75.0,71.9,30.16,NNE,13,0.0,0.0,90,0.00,CLR,,0.08,WeatherDisplay:10.37,2013-08-26 02:20:00,
2013-08-25 22:25:00,75.0,71.9,30.16,NNE,13,0.0,0.0,90,0.00,CLR,,0.08,WeatherDisplay:10.37,2013-08-26 02:25:00,
2013-08-25 22:30:00,75.0,71.9,30.16,NNE,13,0.0,0.0,90,0.00,CLR,,0.08,WeatherDisplay:10.37,2013-08-26 02:30:00,
2013-08-25 22:35:00,75.0,71.9,30.16,NNE,20,0.0,4.0,90,0.00,CLR,,0.08,WeatherDisplay:10.37,2013-08-26 02:35:00,
2013-08-25 22:40:00,74.8,71.7,30.16,NE,36,3.5,0.0,90,0.00,CLR,,0.08,WeatherDisplay:10.37,2013-08-26 02:40:00,
2013-08-25 22:45:00,74.8,71.7,30.16,NE,41,2.3,0.0,90,0.00,CLR,,0.08,WeatherDisplay:10.37,2013-08-26 02:45:00,
2013-08-25 22:50:00,74.8,71.7,30.16,NE,41,0.0,4.0,90,0.00,CLR,,0.08,WeatherDisplay:10.37,2013-08-26 02:50:00,
2013-08-25 22:55:00,74.8,71.7,30.16,NE,40,0.0,0.0,90,0.00,CLR,,0.08,WeatherDisplay:10.37,2013-08-26 02:55:00,
2013-08-25 23:00:00,74.7,71.5,30.16,NNE,18,0.0,2.0,90,0.00,CLR,,0.08,WeatherDisplay:10.37,2013-08-26 03:00:00,
2013-08-25 23:05:00,74.7,70.5,30.17,North,3,0.0,0.0,87,0.00,CLR,,0.08,WeatherDisplay:10.37,2013-08-26 03:05:00,
2013-08-25 23:10:00,74.7,70.5,30.17,North,3,0.0,0.0,87,0.00,CLR,,0.08,WeatherDisplay:10.37,2013-08-26 03:10:00,
2013-08-25 23:15:00,74.5,70.4,30.17,North,3,0.0,0.0,87,0.00,CLR,,0.08,WeatherDisplay:10.37,2013-08-26 03:15:00,
2013-08-25 23:20:00,74.5,70.4,30.17,North,3,0.0,0.0,87,0.00,CLR,,0.08,WeatherDisplay:10.37,2013-08-26 03:20:00,
2013-08-25 23:25:00,74.5,70.4,30.17,NNE,21,0.0,0.0,87,0.00,CLR,,0.08,WeatherDisplay:10.37,2013-08-26 03:25:00,
2013-08-25 23:30:00,74.5,70.4,30.17,NNE,17,0.0,0.0,87,0.00,CLR,,0.08,WeatherDisplay:10.37,2013-08-26 03:30:00,
2013-08-25 23:35:00,74.5,70.4,30.17,NNE,17,0.0,0.0,87,0.00,CLR,,0.08,WeatherDisplay:10.37,2013-08-26 03:35:00,
2013-08-25 23:40:00,74.5,70.4,30.17,NNE,26,0.0,4.0,87,0.00,CLR,,0.08,WeatherDisplay:10.37,2013-08-26 03:40:00,
2013-08-25 23:45:00,74.5,70.4,30.17,NE,34,0.0,4.0,87,0.00,CLR,,0.08,WeatherDisplay:10.37,2013-08-26 03:45:00,
2013-08-25 23:50:00,74.3,70.2,30.17,NE,52,0.0,0.0,87,0.00,CLR,,0.08,WeatherDisplay:10.37,2013-08-26 03:50:00,
2013-08-25 23:55:00,74.3,70.2,30.17,NE,45,0.0,2.0,87,0.00,CLR,,0.08,WeatherDisplay:10.37,2013-08-26 03:55:00,